Regional Weather Roundup
Issued by NWS

Home | Current Version | Previous Version | Graphics & Text | Print | Product List | Glossary On
Versions: 1 2 3 4 5 6 7 8 9 10 11 12 13 14 15 16 17 18 19 20 21 22 23 24 25 26 27 28 29 30 31 32 33 34 35 36 37 38 39 40 41 42 43 44 45 46 47 48 49 50
000
ASUS43 KMKX 250600
RWRWI

WISCONSIN REGIONAL WEATHER ROUNDUP
NATIONAL WEATHER SERVICE MILWAUKEE/SULLIVAN WI
100 AM CDT THU AUG 25 2016

NOTE: "FAIR" INDICATES FEW OR NO CLOUDS BELOW 12,000 FEET WITH NO
SIGNIFICANT WEATHER AND/OR OBSTRUCTIONS TO VISIBILITY.

WIZ001-002-006>008-014>016-023>028-250700-
NORTHWEST WISCONSIN

CITY           SKY/WX    TMP DP  RH WIND       PRES   REMARKS
SUPERIOR ARPT  PTCLDY    56  54  93 S5        29.93S
ASHLAND        CLOUDY    60  56  86 SW7       29.93S
6HR MIN TEMP:  59; 6HR MAX TEMP:  74;

HAYWARD        MOCLDY    59  56  89 SW3       29.98R
6HR MIN TEMP:  58; 6HR MAX TEMP:  73;

SIREN          MOCLDY    62  56  80 W7        29.98R
CUMBERLAND     CLOUDY    61  55  82 W6        29.99R
RICE LAKE      CLOUDY    61  57  87 SW5       30.01R
CHETEK         NOT AVBL
LADYSMITH      PTCLDY    63  58  83 W5        30.00R
EAU CLAIRE     NOT AVBL
MENOMONIE      CLOUDY    65  58  78 W6        30.00R
6HR MIN TEMP:  65; 6HR MAX TEMP:  75;

NEW RICHMOND   MOCLDY    63  57  82 W7        30.01R
OSCEOLA        PTCLDY    62  61  97 SW5       30.02R
$$

WIZ003>005-009-010-017-018-250700-
NORTH CENTRAL WISCONSIN

CITY           SKY/WX    TMP DP  RH WIND       PRES   REMARKS
MANITOWISH WTR NOT AVBL
ARBOR VITAE    CLOUDY    62  58  87 CALM      29.96R
WOODRUFF       CLOUDY    62  58  87 CALM      29.96R
RHINELANDER    CLOUDY    60  59  96 W7        29.96S
6HR MIN TEMP:  60; 6HR MAX TEMP:  72;

EAGLE RIVER    CLOUDY    62  59  90 W7        29.95R
LAND O LAKES   CLOUDY    62  58  90 CALM      29.95S
PHILLIPS       MOCLDY    60  58  93 CALM      29.97S
6HR MIN TEMP:  60; 6HR MAX TEMP:  73;

TOMAHAWK       CLOUDY    58  56  92 CALM      29.97S
MEDFORD        CLOUDY    62  62 100 CALM      29.98S
MERRILL        CLOUDY    62  61  94 W6        29.98R
6HR MIN TEMP:  62; 6HR MAX TEMP:  74;

$$

WIZ029-030-035-036-043>047-250700-
CENTRAL WISCONSIN

CITY           SKY/WX    TMP DP  RH WIND       PRES   REMARKS
WAUSAU         PTCLDY    65  60  84 W7        29.96R
6HR MIN TEMP:  65; 6HR MAX TEMP:  74;

MOSINEE        PTCLDY    63  61  94 W6        29.99S
MARSHFIELD     CLOUDY    64  59  83 W5        29.98S
6HR MIN TEMP:  64; 6HR MAX TEMP:  74;

STEVENS POINT  CLOUDY    66  62  86 W3        29.98S
WAUPACA        MOCLDY    69  68  97 W3        29.96S
WAUTOMA        CLOUDY    65  65 100 W3        29.97R
6HR MIN TEMP:  65; 6HR MAX TEMP:  77;

WISC RAPIDS    CLOUDY    66  65  96 NW6       29.99S
6HR MIN TEMP:  66; 6HR MAX TEMP:  76;

CAMP DOUGLAS   CLOUDY    64  62  94 W6        29.98R
6HR MIN TEMP:  64; 6HR MAX TEMP:  75;

$$

WIZ011>013-019>022-031-037>040-048>050-250700-
NORTHEAST WISCONSIN

CITY           SKY/WX    TMP DP  RH WIND       PRES   REMARKS
ANTIGO         MOCLDY    62  62  99 CALM      29.97S
SHAWANO        CLOUDY    69  66  89 W3        29.94S
OCONTO         NOT AVBL
STURGEON BAY   PTCLDY    71  67  87 W6        29.92S
6HR MIN TEMP:  70; 6HR MAX TEMP:  76;

GREEN BAY      MOCLDY    66  66 100 W6        29.93S
6HR MIN TEMP:  66; 6HR MAX TEMP:  75;

MANITOWOC      NOT AVBL
APPLETON       PTCLDY    64  64 100 W7        29.94S
CLINTONVILLE   MOCLDY    66  64  94 W7        29.94S
OSHKOSH        PTCLDY    68  66  93 SW3       29.95S
6HR MIN TEMP:  68; 6HR MAX TEMP:  77;

$$

WIZ032>034-041-042-053>061-250700-
SOUTHWEST WISCONSIN

CITY           SKY/WX    TMP DP  RH WIND       PRES   REMARKS
LA CROSSE      CLOUDY    69  32  25 N5        29.99
6HR MIN TEMP:  68; 6HR MAX TEMP:  79;

SPARTA         CLOUDY    65  64  97 W5        30.00R
VIROQUA        CLOUDY    65  61  86 NW5       30.00S
6HR MIN TEMP:  65; 6HR MAX TEMP:  75;

BOSCOBEL       PTCLDY    70  67  90 CALM      29.98R
6HR MIN TEMP:  70; 6HR MAX TEMP:  81;

PRAIRIE DU CHI CLOUDY    71  63  76 N5        29.98R
PLATTEVILLE    CLOUDY    72  72  98 CALM      29.99R
$$

WIZ056-057-062-063-064-067-068-250700-
SOUTH CENTRAL WISCONSIN

CITY           SKY/WX    TMP DP  RH WIND       PRES   REMARKS
REEDSBURG      NOT AVBL
BARABOO/DELLS  CLOUDY    67  65  92 S5        29.97R
LONE ROCK      NOT AVBL
MINERAL POINT  CLOUDY    72  70  94 NW5       29.98S
MADISON        CLOUDY    72  69  90 N7        29.95S
6HR MIN TEMP:  71; 6HR MAX TEMP:  80; 6HR PCP:  0.06;

MIDDLETON      CLOUDY    72  72 100 CALM      29.97S
WATERTOWN      CLOUDY    74  74 100 NW3       29.96R
MONROE         CLOUDY    73  70  88 W5        29.97S
JANESVILLE     CLOUDY    75  73  94 CALM      29.95S
$$

WIZ051-052-058>065-066-070>072-250700-
SOUTHEAST WISCONSIN

CITY           SKY/WX    TMP DP  RH WIND       PRES   REMARKS
MILWAUKEE      MOCLDY    77  72  84 CALM      29.95
6HR MIN TEMP:  77; 6HR MAX TEMP:  85;

WAUKESHA       CLOUDY    72  70  94 CALM      29.97R
MILWAUKEE/TIMM MOCLDY    75  68  78 CALM      29.96R
RACINE         CLOUDY    76  71  85 W6        29.95S
6HR MIN TEMP:  75; 6HR MAX TEMP:  82;

BURLINGTON     CLOUDY    71  69  94 CALM      29.95S
KENOSHA        CLOUDY    75  71  87 SW6       29.95S
6HR MIN TEMP:  74; 6HR MAX TEMP:  80;

FOND DU LAC    CLOUDY    69  67  93 W3        29.96S
6HR MIN TEMP:  69; 6HR MAX TEMP:  79;

SHEBOYGAN      CLEAR     67  65  93 W5        29.95R FOG
6HR MIN TEMP:  66; 6HR MAX TEMP:  79;

WEST BEND      PTCLDY    70  68  94 CALM      29.96S
JUNEAU         CLOUDY    71  69  94 NW6       29.97R
$$

LSZ147-162-250700-
LAKE SUPERIOR

STATION/POSITION TIME  TEMP    WIND        PRES    WAVE
                       AIR SEA DIR/SP/G            HT/PER
                 (UTC) (F)     (DEG/KT/KT) (MB)    (FT/S)
W MID LAKE BUOY  0450   70 69  270/ 14/ 16 1010.2R   2/ 4
DEVILS ISLAND    0500   68     260/ 14/ 16 1012.2R
PORT WING        0540   66     190/  6/  8 1013.2S
SAXON HARBOR     0500   68     200/  7/  9 1012.9
$$

LMZ867-665-643>646-250700-
LAKE MICHIGAN

STATION/POSITION TIME  TEMP    WIND        PRES    WAVE
                       AIR SEA DIR/SP/G            HT/PER
                 (UTC) (F)     (DEG/KT/KT) (MB)    (FT/S)
CHAMBERS ISLAND  0540   69     210/  3/  7 1012.2F
S GREEN BAY BUOY 0530   72 73  260/ 10/ 12 1012.5F
N MID LAKE BUOY  0450   71 70  240/ 12/ 12 1010.9F   4/ 7
NORTHPORT PIER   0500   72     280/  4/  9 1012.2R
SISTER BAY       0537   72     270/  9/ 10   N/A
KEWAUNEE LAKESHO 0500   70     300/  4/  5 1012.6S
SHEBOYGAN LAKESH 0500   72     260/  5/  6 1013.0F
PORT WASHINGTON  0500   75     320/  1/  3 1014.2S
ATWATER BUOY     0500   61 46   30/  2/  4   N/A
MILWAUKEE LAKESH 0510   67      50/  1/  2   N/A
S MID LAKE BUOY  0450   76 75  190/  8/ 10 1012.9F   1
KENOSHA   LAKESH 0500   78     250/  6/  9 1013.5S
$$

TC  - TEMPERATURE IN CELSIUS
VSB - VISIBILITY IN STATUTE MILES
WCI - WIND CHILL INDEX
HX  - HEAT INDEX




USA.gov is the U.S. government's official web portal to all federal, state and local government web resources and services.